QUBE

Last updated on Mon Sep 16 2024 00:02:03 GMT+0000 (Coordinated Universal Time)

1 60476U 24149J 24258.90679943 .00023478 00000+0 11432-2 0 9997 2 60476 97.4428 334.0056 0002998 14.1419 345.9899 15.18362745 4416
UTC large
Height (km)
Speed (km/s)
/
Latitude / Longitude
Inclination (degrees)
Orbital Period (minutes)
Azimuth
Elevation
Range (km)
Doppler Factor

Next 0 passes for location: London (51.5072 / 0.1276)

Sorry there are no passes over London.